COSMOS 1275 DEB, 12704

Orbit data source: Space-Track

COSMOS 1275 DEB, 12704 is space debris in LEO originally from a launch on Thu, 04 Jun 1981 UTC launched from the Plesetsk Missile And Space Complex (PKMTR). Debris objects in space refer to the collection of defunct objects orbiting the Earth. Examples of debris include non-operational satellites, rocket bodies, and fragments generated from explosions, collisions, or faulty payload assembly.

Loading next visibility...
Identifier
12704, 1981-053AY
Orbit
LEO
Country
Flag of CISCIS
Related business
Manufacturer
Unknown
Mission
Spacecraft
Bus & Motor
Unknown
Mass
Unknown
Launch date (UTC)
1981-06-04 (45 years ago)
Launch vehicle
Unknown
Launch site
Plesetsk Missile And Space Complex (PKMTR)
Object type
Payload
Rocket body
Debris
Shape & HBR
Unknown shape, 0.1 m
Radar Cross Section
Small (<0.1 m²)

Expand to show TLE details & history
Last TLE update: 9 hours ago

TLE from 9 hours ago
0 COSMOS 1275 DEB
1 12704U 81053AY  25345.30053505  .00000510  00000-0  54018-3 0  9998
2 12704  82.9890 267.1025 0083478 143.0559 345.3934 13.71002020211474
Epoch: 2025-12-11T07:12Z
TLE epoch observation values (Epoch: 2025-12-11T07:12:46.228Z)
Latitude
51.35141°
Longitude
-110.14838°
Altitude
944.69 km
Speed
7.414 km/s
True Right ascension
05h 13m 12s
True Declination
51° 11' 16"
Sunlit
Object was in full shadow at epoch
Visualization orbit readout
Latitude
Unknown
Longitude
Unknown
Altitude
Unknown
Speed
Unknown
Apparent Right ascension
Unknown
Apparent Declination
Unknown
Sunlit
N/A
Visualization observer readout
Local Sidereal Time
14:30:49
Azimuth
Unknown
Elevation
Unknown
Doppler factor
Unknown
Orbital elements
Apogee altitude
1,054.662 km
Perigee altitude
931.594 km
Semi-major axis
7,371.265 km
Eccentricity
0.00835
Inclination
82.989°
RAAN
267.1025°
Arg. of periapsis
143.0559°
True anomaly
345.14971°
Mean anomaly
345.3934°
Eccentric anomaly
345.2718°
Mean motion
3.42949 °/min
Orbital period
104.97 mins
BSTAR
0.00054018
Loading maneuver chart data...
Computing Atmospheric mass density...

Documentation

Showing up to 5 results
|